Mountain Home, Arkansas, United States (72653)
Lat: 36.34N, Lon: 92.39W
Wx Zone: ARZ005
Local Info
Past Weather Observations for Saturday, July 26, 2014

NOTE: This archive is for the closest National Weather Service station to Mountain Home. Information may differ from the station used for current weather conditions.

Click here for Long-term Archive

Time Weather Temperature Dewpoint Humidity Pressure Winds Precip Visibility
23:53
Clear
77°F / 25°C 73°F / 23°C 89% 29.95 in
(1014 mb)
SW 4.6 mph
(SW 7 kph)
- 7SM
22:53
Clear
79°F / 26°C 73°F / 23°C 84% 29.95 in
(1014 mb)
SW 4.6 mph
(SW 7 kph)
- 7SM
21:53
Clear
81°F / 27°C 73°F / 23°C 79% 29.95 in
(1014 mb)
SW 4.6 mph
(SW 7 kph)
- 8SM
20:53
Clear
81°F / 27°C 73°F / 23°C 79% 29.95 in
(1014 mb)
SW 4.6 mph
(SW 7 kph)
- 8SM
19:53
Clear
82°F / 28°C 73°F / 23°C 74% 29.95 in
(1014 mb)
SW 4.6 mph
(SW 7 kph)
- 8SM
18:53
Clear
84°F / 29°C 73°F / 23°C 70% 29.95 in
(1014 mb)
SW 5.8 mph
(SW 9 kph)
- 7SM
17:53
Clear
90°F / 32°C 73°F / 23°C 59% 29.92 in
(1013 mb)
SW 8.1 mph
(SW 13 kph)
- 7SM
16:53
Clear
90°F / 32°C 72°F / 22°C 55% 29.92 in
(1013 mb)
SW 8.1 mph
(SW 13 kph)
- 8SM
15:53
Clear
93°F / 34°C 72°F / 22°C 49% 29.92 in
(1013 mb)
SW 8.1 mph
(SW 13 kph)
- 8SM
14:53
Clear
93°F / 34°C 72°F / 22°C 49% 29.95 in
(1014 mb)
SW 6.9 mph
(SW 11 kph)
- 8SM
13:53
Clear
93°F / 34°C 73°F / 23°C 53% 29.95 in
(1014 mb)
Variable 6.9 mph
(Variable 11 kph)
- 8SM
12:53
Clear
91°F / 33°C 72°F / 22°C 52% 29.95 in
(1014 mb)
SW 8.1 mph
(SW 13 kph)
- 8SM
11:53
Clear
91°F / 33°C 73°F / 23°C 56% 29.98 in
(1015 mb)
SW 8.1 mph
(SW 13 kph)
- 7SM
10:53
Clear
90°F / 32°C 73°F / 23°C 59% 29.98 in
(1015 mb)
SW 10.4 mph
(SW 17 kph)
- 7SM
09:53
Clear
Hazy
86°F / 30°C 73°F / 23°C 66% 29.98 in
(1015 mb)
Variable 5.8 mph
(Variable 9 kph)
- 6SM
08:53
Clear
Hazy
82°F / 28°C 73°F / 23°C 74% 30.01 in
(1016 mb)
SSW 6.9 mph
(SSW 11 kph)
- 6SM
06:53
Clear
Fog And Mist
75°F / 24°C 72°F / 22°C 89% 30.01 in
(1016 mb)
SW 3.5 mph
(SW 6 kph)
- 4SM
06:26
Clear
Fog And Mist
73°F / 23°C 72°F / 22°C 94% 29.98 in
(1015 mb)
Calm - 3SM
05:53
Clear
Fog And Mist
72°F / 22°C 70°F / 21°C 94% 29.98 in
(1015 mb)
Calm - 2SM
05:51
Clear
Fog And Mist
72°F / 22°C 70°F / 21°C 94% 29.98 in
(1015 mb)
Calm - 2 1/2SM
04:53
Clear
Fog And Mist
72°F / 22°C 70°F / 21°C 94% 29.98 in
(1015 mb)
SW 4.6 mph
(SW 7 kph)
- 5SM
03:53
Clear
Fog And Mist
72°F / 22°C 70°F / 21°C 94% 29.95 in
(1014 mb)
S 4.6 mph
(S 7 kph)
- 4SM
02:53
Clear
Fog And Mist
72°F / 22°C 70°F / 21°C 94% 29.95 in
(1014 mb)
Calm - 5SM
01:53
Clear
Fog And Mist
72°F / 22°C 70°F / 21°C 94% 29.95 in
(1014 mb)
Calm - 6SM
00:53
Clear
72°F / 22°C 70°F / 21°C 94% 29.95 in
(1014 mb)
S 4.6 mph
(S 7 kph)
- 7SM
Time Weather Temperature Dewpoint Humidity Pressure Winds Precip Visibility


Weather for websites

WeatherForYou.com, LLC is not responsible for any damages or problems caused by this service. Current weather conditions are obtained from the closest station including government and personal stations which may have varying degrees of accuracy. Weather forecasts are derived from the NOAA NDFD. Like all things, this site belongs to Jesus Christ... He just trusts me to maintain it. If you have any questions or comments email webmaster@weatherforyou.com

Copyright © 2014, WeatherForYou.com LLC. All rights reserved.